Livermore, CA

10:19 AM PDT on May 27, 2017 (GMT -0700)
Livermore Municipal

Weather History for KLVK - August, 2014

Change the Weather History Date:

Saturday, August 16, 2014

  Actual Average Record
Temperature  
Mean Temperature 75 °F 72 °F  
Max Temperature 92 °F 87 °F 106 °F (2015)
Min Temperature 58 °F 57 °F 40 °F (1972)
Degree Days  
Heating Degree Days 0 0  
Month to date heating degree days 0 0  
Since 1 June heating degree days 4 36  
Since 1 July heating degree days 0 4  
Cooling Degree Days 10 7  
Month to date cooling degree days 145 120  
Year to date cooling degree days 791 514  
Since 1 June cooling degree days 665 461  
Growing Degree Days 24 (Base 50)    
Moisture  
Dew Point 52 °F    
Average Humidity 57    
Maximum Humidity 93    
Minimum Humidity 20    
Precipitation  
Precipitation 0.00 in 0.00 in 0.03 in (1941)
Month to date precipitation 0.00 0.00  
Year to date precipitation 4.88 9.90  
Since 1 July precipitation T  
Sea Level Pressure  
Sea Level Pressure 29.98 in    
Wind  
Wind Speed 7 mph (WNW)    
Max Wind Speed 16 mph    
Max Gust Speed 20 mph    
Visibility 10 miles    
Events      
T = Trace of Precipitation, MM = Missing Value Source: NWS Daily Summary

Daily Weather History Graph

Daily Weather History Graph

Search for Another Location

Airport or City:

Trip Planner

Search our weather history database for the weather conditions in past years. The results will help you decide how hot, cold, wet, or windy it might be!

Date:

Astronomy

Aug. 16, 2014 Rise Set
Actual Time 6:23 AM PDT 7:58 PM PDT
Civil Twilight 5:56 AM PDT 8:26 PM PDT
Nautical Twilight 5:22 AM PDT 8:59 PM PDT
Astronomical Twilight 4:47 AM PDT 9:34 PM PDT
Moon 11:54 PM PDT (8/16) 1:07 PM PDT (8/16)
Length of Visible Light 14h 30m
Length of Day
13h 34m
Waning Gibbous, 58% of the Moon is Illuminated
Aug 16
Waning Gibbous
Aug 17
Last Quarter
Aug 25
New
Sep 2
First Quarter
Sep 8
Full

Hourly Weather History & Observations

Time (PDT) Temp. Heat Index Dew Point Humidity Pressure Visibility Wind Dir Wind Speed Gust Speed Precip Events Conditions
12:53 AM 64.0 °F - 54.0 °F 70% 29.97 in 10.0 mi WNW 4.6 mph - N/A   Clear
1:53 AM 63.0 °F - 54.0 °F 72% 29.96 in 10.0 mi NW 4.6 mph - N/A   Clear
2:53 AM 61.0 °F - 54.0 °F 78% 29.96 in 10.0 mi West 4.6 mph - N/A   Clear
3:53 AM 61.0 °F - 53.1 °F 75% 29.97 in 10.0 mi Calm Calm - N/A   Clear
4:53 AM 60.1 °F - 54.0 °F 80% 29.97 in 10.0 mi NNW 5.8 mph - N/A   Clear
5:53 AM 57.9 °F - 55.0 °F 90% 29.99 in 10.0 mi WNW 4.6 mph - N/A   Clear
6:17 AM 59.0 °F - 57.2 °F 94% 30.00 in 8.0 mi WNW 9.2 mph - N/A   Scattered Clouds
6:26 AM 59.0 °F - 57.2 °F 94% 30.01 in 7.0 mi NW 8.1 mph - N/A   Mostly Cloudy
6:53 AM 60.1 °F - 57.0 °F 90% 30.00 in 6.0 mi NW 5.8 mph - N/A   Mostly Cloudy
7:53 AM 61.0 °F - 57.0 °F 87% 30.02 in 7.0 mi Calm Calm - N/A   Mostly Cloudy
8:53 AM 64.0 °F - 57.0 °F 78% 30.03 in 8.0 mi NW 8.1 mph - N/A   Mostly Cloudy
9:22 AM 64.4 °F - 57.2 °F 77% 30.03 in 10.0 mi WNW 5.8 mph - N/A   Scattered Clouds
9:53 AM 66.0 °F - 57.0 °F 73% 30.03 in 10.0 mi WNW 6.9 mph - N/A   Clear
10:53 AM 73.0 °F - 57.0 °F 57% 30.03 in 10.0 mi NW 5.8 mph - N/A   Clear
11:53 AM 79.0 °F - 55.9 °F 45% 30.01 in 10.0 mi Calm Calm - N/A   Clear
12:53 PM 84.0 °F 82.5 °F 53.1 °F 34% 29.99 in 10.0 mi West 3.5 mph - N/A   Clear
1:53 PM 89.1 °F - 46.9 °F 23% 29.96 in 10.0 mi NW 9.2 mph - N/A   Clear
2:53 PM 91.0 °F - 45.0 °F 20% 29.95 in 10.0 mi NW 9.2 mph - N/A   Clear
3:53 PM 91.0 °F - 46.9 °F 22% 29.93 in 10.0 mi WNW 11.5 mph - N/A   Clear
4:53 PM 89.1 °F - 51.1 °F 27% 29.92 in 10.0 mi WNW 15.0 mph - N/A   Clear
5:53 PM 87.1 °F - 52.0 °F 30% 29.92 in 10.0 mi WNW 13.8 mph - N/A   Clear
6:53 PM 81.0 °F - 48.0 °F 31% 29.92 in 10.0 mi WNW 15.0 mph - N/A   Clear
7:53 PM 77.0 °F - 46.0 °F 33% 29.94 in 10.0 mi WNW 11.5 mph - N/A   Clear
8:53 PM 72.0 °F - 44.1 °F 37% 29.95 in 10.0 mi WNW 13.8 mph - N/A   Clear
9:53 PM 69.1 °F - 43.0 °F 39% 29.97 in 10.0 mi West 6.9 mph - N/A   Clear
10:53 PM 64.0 °F - 51.1 °F 63% 29.99 in 10.0 mi WNW 9.2 mph - N/A   Clear